Regional Weather Roundup
Issued by NWS

Home | Current Version | Previous Version | Text Only | Print | Product List | Glossary Off
Versions: 1 2 3 4 5 6 7 8 9 10 11 12 13 14 15 16 17 18 19 20 21 22 23 24 25 26 27 28 29 30 31 32 33 34 35 36 37 38 39 40 41 42 43 44 45 46 47 48 49 50

000
ASUS43 KTOP 271959
RWRKS

WEATHER ROUNDUP FOR KANSAS
NATIONAL WEATHER SERVICE GOODLAND KS
300 PM CDT SAT MAY 27 2017

NOTE:  "FAIR" INDICATES FEW OR NO CLOUDS BELOW 12,000 FEET WITH NO
SIGNIFICANT WEATHER AND/OR OBSTRUCTIONS TO VISIBILITY.

KSZ001>006-013>018-027>032-041>047-272100-
NORTHWEST KANSAS

CITY           SKY/WX    TMP DP  RH WIND       PRES   REMARKS
GOODLAND       PTSUNNY   65  50  58 N20G28    30.01S
HAYS           PTSUNNY   74  60  61 N12       29.89F
HILL CITY      PTSUNNY   72  58  61 N16G22    29.93R
RUSSELL        PTSUNNY   75  60  59 NW12      29.87F
$$

KSZ061>065-074>080-084>089-272100-
SOUTHWEST KANSAS

CITY           SKY/WX    TMP DP  RH WIND       PRES   REMARKS
DODGE CITY     CLOUDY    77  54  44 N10       29.91S
ELKHART          N/A     74  51  44 N3          N/A
GARDEN CITY    CLOUDY    74  53  48 N14       29.93S
GREAT BEND     MOSUNNY   74  61  63 NW10      29.88F
LIBERAL        CLOUDY    75  57  53 NE10G18   29.92F
$$

KSZ066>073-081>083-090>101-272100-
SOUTHEAST KANSAS

CITY           SKY/WX    TMP DP  RH WIND       PRES   REMARKS
CHANUTE        CLOUDY    75  65  70 NE12      29.79R
COFFEYVILLE    CLOUDY    80  77  90 NE12      29.74S
HUTCHINSON     MOSUNNY   76  59  55 N12       29.84S
MEDICINE LODGE   N/A     82  61  48 E9        29.80F
NEWTON         CLOUDY    73  59  61 NE9       29.82R
PARSONS        PTSUNNY   80  71  74 N7        29.76F
WICHITA INTL   MOSUNNY   80  63  55 E9        29.79F
WICHITA JABRA  SUNNY     81  63  54 E9        29.80S
WINFIELD       MOSUNNY   82  70  66 NE7       29.77F
$$

KSZ007>012-019>026-033>040-048>060-102>105-272100-
NORTHEAST KANSAS

CITY           SKY/WX    TMP DP  RH WIND       PRES   REMARKS
CONCORDIA      PTSUNNY   72  62  71 N10       29.85F
EMPORIA        MOSUNNY   79  66  64 E15       29.79R
LAWRENCE       CLOUDY    72  62  71 VRB5      29.82R
MANHATTAN      MOSUNNY   75  64  68 NW7       29.82R
OLATHE IND     CLOUDY    69  59  70 E10       29.81R
OLATHE EXE     CLOUDY    68  61  78 NE9       29.80R
SALINA         CLOUDY    77  63  61 NW16G25   29.84R
TOPEKA BILLARD MOSUNNY   76  64  66 NW5       29.82R
TOPEKA FORBES  SUNNY     79  65  62 E5        29.81R
$$



USA.gov is the U.S. government's official web portal to all federal, state and local government web resources and services.